Weather History for Lexington, NE

Change the Weather History Date:

Wednesday, March 19, 2014

  Actual Average Record
Temperature  
Mean Temperature 36 °F -  
Max Temperature 53 °F 50 °F 80 °F (2004)
Min Temperature 20 °F 26 °F 19 °F (2005)
Degree Days  
Heating Degree Days 28    
Moisture  
Dew Point 26 °F    
Average Humidity 71    
Maximum Humidity 94    
Minimum Humidity 31    
Precipitation  
Precipitation 0.00 in - - ()
Sea Level Pressure  
Sea Level Pressure 30.06 in    
Wind  
Wind Speed 12 mph (WNW)    
Max Wind Speed 21 mph    
Max Gust Speed 26 mph    
Visibility 10 miles    
Events      
Averages and records for this station are not official NWS values.
T = Trace of Precipitation, MM = Missing Value Source: NWS Daily Summary

Daily Weather History Graph

Daily Weather History Graph

Search for Another Location

Airport:

Trip Planner

Search our weather history database for the weather conditions in past years. The results will help you decide how hot, cold, wet, or windy it might be!

Date:

Astronomy

Mar. 19, 2014 Rise Set
Actual Time 7:44 AM CDT 7:50 PM CDT
Civil Twilight 7:16 AM CDT 8:17 PM CDT
Nautical Twilight 6:44 AM CDT 8:49 PM CDT
Astronomical Twilight 6:12 AM CDT 9:22 PM CDT
Moon 11:11 PM CDT (3/19) 9:09 AM CDT (3/19)
Length of Visible Light 13h 00m
Length of Day
12h 06m
Waning Gibbous, 91% of the Moon is Illuminated
Mar 19
Waning Gibbous
Mar 23
Last Quarter
Mar 30
New
Apr 7
First Quarter
Apr 15
Full

Hourly Weather History & Observations

Time (CDT) Temp. Windchill Dew Point Humidity Pressure Visibility Wind Dir Wind Speed Gust Speed Precip Events Conditions
12:15 AM 34.0 °F 22.7 °F 30.0 °F 85% 29.99 in 10.0 mi NNW 19.6 mph - N/A   Overcast
12:35 AM 34.3 °F 22.9 °F 30.2 °F 85% 30.00 in 10.0 mi NNW 20.7 mph 26.5 mph N/A   Overcast
12:55 AM 34.7 °F 24.7 °F 30.6 °F 85% 30.00 in 10.0 mi NNW 16.1 mph 21.9 mph N/A   Overcast
1:15 AM 33.6 °F 23.7 °F 29.3 °F 84% 30.00 in 10.0 mi NNW 15.0 mph - N/A   Scattered Clouds
1:35 AM 32.4 °F 23.5 °F 28.8 °F 87% 30.00 in 10.0 mi NW 11.5 mph - N/A   Clear
1:55 AM 32.0 °F 23.0 °F 28.4 °F 87% 30.00 in 10.0 mi NW 11.5 mph - N/A   Clear
2:15 AM 30.6 °F 22.4 °F 27.3 °F 88% 30.01 in 10.0 mi NW 9.2 mph - N/A   Clear
2:35 AM 29.8 °F 20.9 °F 27.0 °F 89% 30.02 in 10.0 mi NW 10.4 mph - N/A   Clear
2:55 AM 29.1 °F 20.6 °F 26.2 °F 89% 30.02 in 10.0 mi NNW 9.2 mph - N/A   Clear
3:15 AM 28.0 °F 20.0 °F 25.5 °F 90% 30.02 in 10.0 mi NW 8.1 mph - N/A   Clear
3:35 AM 27.5 °F 20.2 °F 25.3 °F 92% 30.03 in 7.0 mi WNW 6.9 mph - N/A   Clear
3:55 AM 26.2 °F 19.6 °F 24.1 °F 92% 30.03 in 7.0 mi WNW 5.8 mph - N/A   Clear
4:15 AM 25.5 °F 16.2 °F 23.5 °F 92% 30.03 in 7.0 mi West 9.2 mph - N/A   Clear
4:35 AM 25.0 °F 15.5 °F 23.0 °F 92% 30.03 in 7.0 mi WNW 9.2 mph - N/A   Clear
4:55 AM 25.7 °F 17.1 °F 23.7 °F 92% 30.04 in 7.0 mi NW 8.1 mph - N/A   Clear
5:15 AM 24.8 °F 15.3 °F 22.8 °F 92% 30.04 in 7.0 mi WNW 9.2 mph - N/A   Clear
5:35 AM 24.6 °F 15.1 °F 22.8 °F 93% 30.04 in 7.0 mi WNW 9.2 mph - N/A   Clear
5:55 AM 23.4 °F 15.2 °F 21.6 °F 93% 30.05 in 7.0 mi WNW 6.9 mph - N/A   Clear
6:15 AM 23.4 °F 12.8 °F 21.7 °F 94% 30.06 in 7.0 mi WNW 10.4 mph - N/A   Clear
6:35 AM 23.0 °F 13.1 °F 21.2 °F 93% 30.06 in 10.0 mi WNW 9.2 mph - N/A   Clear
6:55 AM 20.1 °F 11.3 °F 18.1 °F 92% 30.06 in 10.0 mi NW 6.9 mph - N/A   Clear
7:15 AM 20.8 °F 11.2 °F 18.9 °F 92% 30.07 in 10.0 mi NW 8.1 mph - N/A   Clear
7:35 AM 21.7 °F 11.5 °F 19.4 °F 91% 30.07 in 10.0 mi WNW 9.2 mph - N/A   Clear
7:55 AM 23.4 °F 12.2 °F 21.0 °F 91% 30.08 in 10.0 mi WNW 11.5 mph - N/A   Clear
8:15 AM 24.3 °F 14.6 °F 21.6 °F 89% 30.09 in 10.0 mi NW 9.2 mph - N/A   Clear
8:35 AM 25.3 °F 13.6 °F 22.5 °F 89% 30.10 in 10.0 mi WNW 13.8 mph - N/A   Clear
8:55 AM 26.4 °F 16.6 °F 23.5 °F 89% 30.10 in 10.0 mi WNW 10.4 mph - N/A   Clear
9:15 AM 27.5 °F 18.6 °F 24.3 °F 88% 30.11 in 10.0 mi WNW 9.2 mph - N/A   Clear
9:35 AM 29.1 °F 20.0 °F 25.3 °F 86% 30.11 in 10.0 mi WNW 10.4 mph - N/A   Clear
9:55 AM 29.5 °F 20.4 °F 25.3 °F 85% 30.12 in 10.0 mi WNW 10.4 mph - N/A   Clear
10:15 AM 30.4 °F 20.5 °F 25.9 °F 83% 30.13 in 10.0 mi WNW 12.7 mph - N/A   Clear
10:35 AM 31.8 °F 23.3 °F 27.3 °F 83% 30.13 in 10.0 mi WNW 10.4 mph - N/A   Clear
10:55 AM 32.7 °F 24.5 °F 28.0 °F 83% 30.13 in 10.0 mi WNW 10.4 mph - N/A   Clear
11:15 AM 34.2 °F 26.8 °F 28.9 °F 81% 30.14 in 10.0 mi WNW 9.2 mph - N/A   Clear
11:35 AM 35.8 °F 28.8 °F 29.7 °F 78% 30.14 in 10.0 mi West 9.2 mph - N/A   Clear
11:55 AM 37.4 °F 32.1 °F 31.3 °F 79% 30.14 in 10.0 mi West 6.9 mph - N/A   Clear
12:15 PM 40.1 °F 34.7 °F 32.4 °F 74% 30.13 in 10.0 mi West 8.1 mph - N/A   Clear
12:35 PM 42.8 °F 37.5 °F 32.2 °F 66% 30.13 in 10.0 mi West 9.2 mph - N/A   Clear
12:55 PM 44.1 °F 38.1 °F 31.6 °F 62% 30.13 in 10.0 mi West 11.5 mph 17.3 mph N/A   Clear
1:15 PM 43.7 °F 37.3 °F 31.5 °F 62% 30.12 in 10.0 mi West 12.7 mph - N/A   Clear
1:35 PM 44.4 °F 38.6 °F 32.0 °F 62% 30.12 in 10.0 mi West 11.5 mph - N/A   Clear
1:55 PM 45.3 °F 39.3 °F 31.6 °F 59% 30.11 in 10.0 mi West 12.7 mph - N/A   Clear
2:15 PM 46.4 °F 40.4 °F 30.9 °F 55% 30.11 in 10.0 mi West 13.8 mph - N/A   Clear
2:35 PM 46.4 °F 41.1 °F 30.7 °F 54% 30.10 in 10.0 mi WSW 11.5 mph 17.3 mph N/A   Clear
2:55 PM 48.0 °F - 30.6 °F 51% 30.09 in 10.0 mi West 12.7 mph - N/A   Clear
3:15 PM 48.9 °F - 30.0 °F 48% 30.08 in 10.0 mi West 10.4 mph 19.6 mph N/A   Clear
3:35 PM 50.0 °F - 30.2 °F 47% 30.06 in 10.0 mi WSW 15.0 mph 21.9 mph N/A   Clear
3:55 PM 50.9 °F - 28.9 °F 43% 30.05 in 10.0 mi WSW 15.0 mph 18.4 mph N/A   Clear
4:15 PM 51.8 °F - 28.4 °F 41% 30.05 in 10.0 mi WSW 12.7 mph 23.0 mph N/A   Clear
4:35 PM 52.5 °F - 27.1 °F 38% 30.04 in 10.0 mi WSW 17.3 mph 23.0 mph N/A   Clear
4:55 PM 52.7 °F - 27.7 °F 38% 30.04 in 10.0 mi West 15.0 mph 21.9 mph N/A   Clear
5:20 PM 53.4 °F - 25.9 °F 34% 30.03 in 10.0 mi West 16.1 mph 23.0 mph N/A   Clear
5:35 PM 53.6 °F - 27.0 °F 36% 30.04 in 10.0 mi West 16.1 mph - N/A   Clear
5:55 PM 53.4 °F - 26.4 °F 35% 30.04 in 10.0 mi West 13.8 mph 21.9 mph N/A   Clear
6:15 PM 53.1 °F - 22.8 °F 31% 30.04 in 10.0 mi WNW 12.7 mph 19.6 mph N/A   Clear
6:35 PM 52.7 °F - 23.0 °F 31% 30.04 in 10.0 mi NW 11.5 mph - N/A   Clear
6:55 PM 51.3 °F - 25.3 °F 37% 30.04 in 10.0 mi NW 8.1 mph - N/A   Clear
7:15 PM 49.5 °F - 27.1 °F 42% 30.04 in 10.0 mi NW 5.8 mph - N/A   Clear
7:35 PM 46.4 °F 43.5 °F 27.5 °F 48% 30.05 in 10.0 mi WNW 5.8 mph - N/A   Clear
7:55 PM 44.4 °F 42.0 °F 28.2 °F 53% 30.04 in 10.0 mi WNW 4.6 mph - N/A   Clear
8:15 PM 42.3 °F 37.3 °F 27.7 °F 56% 30.05 in 10.0 mi WNW 8.1 mph - N/A   Clear
8:35 PM 37.8 °F 33.3 °F 26.6 °F 64% 30.05 in 10.0 mi WSW 5.8 mph - N/A   Clear
8:55 PM 36.3 °F 32.5 °F 27.0 °F 69% 30.05 in 10.0 mi WSW 4.6 mph - N/A   Clear
9:15 PM 36.0 °F 32.1 °F 26.6 °F 69% 30.05 in 10.0 mi West 4.6 mph - N/A   Clear
9:35 PM 35.6 °F 30.7 °F 26.8 °F 70% 30.04 in 10.0 mi SW 5.8 mph - N/A   Clear
9:55 PM 36.5 °F 32.7 °F 26.4 °F 67% 30.05 in 10.0 mi SW 4.6 mph - N/A   Clear
10:20 PM 34.0 °F 31.0 °F 25.2 °F 70% 30.04 in 10.0 mi SSW 3.5 mph - N/A   Clear
10:35 PM 33.1 °F 27.7 °F 25.2 °F 73% 30.04 in 10.0 mi SSW 5.8 mph - N/A   Clear
10:55 PM 34.0 °F 28.8 °F 24.8 °F 69% 30.04 in 10.0 mi SW 5.8 mph - N/A   Clear
11:15 PM 32.4 °F 27.9 °F 24.8 °F 74% 30.03 in 10.0 mi SW 4.6 mph - N/A   Clear
11:35 PM 34.0 °F 28.8 °F 24.8 °F 69% 30.03 in 10.0 mi SSW 5.8 mph - N/A   Clear
11:55 PM 35.1 °F 31.0 °F 26.1 °F 70% 30.02 in 10.0 mi SSW 4.6 mph - N/A   Clear